Starlink 31416

operational
NORAD ID: 59355 Int'l Des: 2024-060 Owner: SPXS Country: US Constellation: starlink
LEOCIRCULAR

关于 Starlink 31416

正在加载描述...

实时位置

正在加载3D地球...

即将过境

高度历史

Altitude vs Time

uPlot chart will show altitude changes over time

两行轨道根数

1 59355U 24060H 25305.60699351 .00002128 00000-0 86859-4 0 9996
2 59355 42.9986 263.2541 0000979 268.6348 91.4392 15.27562212 90473
Epoch: Nov 1, 2025 • Age: 26 hours

当前状态

高度 486.8 km
速度 7.63 km/s
星下点 42.50°N, 75.68°E
发射日期 Mar 31, 2024
运行时间 1.5 years
类型 internet

技术详情

分类 Payload
质量 730.00 kg
干质量 700.00 kg
总质量 730.00 kg
长度 0.30 m
直径 4.10 m
跨度 29.00 m
形状 Box + pan
制造商 SPXS
平台类型 Starlink V2M
阶段状态 In Orbit
所有者/国家 SPXS/US

大型星座

Loading constellations...